S-NET C (43189 NORAD) Tracking and Keplerian Element Data

This shows tracking and keplerian element data for the satellite.

Feedback or suggestion? Click here.




ElementValue
Catalog43189
NameS-NET C
Epoch Orbit19677
Epoch Day261.52809658
Epoch Year2021
RAAN167.362
Inclination97.6677
Eccentricity0.0011838
Argument of Perigee125.5708
Mean Anonmoly234.6619
Mean Motion14.97133472
Decay Rate-9E-08
L11 43189U 18014K 21261.52809658 -.00000009 00000-0 41873-5 0 9992
L22 43189 97.6677 167.3620 0011838 125.5708 234.6619 14.97133472196775

Live tracking and technical data element details for S-NET C (NORAD 43189). S-NET C can be tracked NOW for your location showing map with azimuth and elevation plus other details from your city location.

Track the satellite on the map from your city or location and see movement details for azimuth, elevation, latitude, longitude, range, height, and movement on the map or in text.







IsCatalogInMostPopularTable: catalog: 43189, numindb: 589
Update: records affected: 1



GetName: 43189 S-NET C

Hit Count: updated at: Sun, 26 Sep 2021 01:22:52 GMT